WI1SKY Weather Reports


time (UTC)temp
C
wind
direction
speed
KPH
gust
KPH
rain 1hr
cm
rain 24hr
cm
rain mn
cm
humidity
%
barometer
mb
20260503223801 21 313 11.3 16.1 0.00 0.00 0.00 37 1002.2
20260503223300 22 293 11.3 16.1 0.00 0.00 0.00 35 1002.0
20260503222801 22 299 11.3 17.7 0.00 0.00 0.00 38 1002.0
20260503222726 22 296 8.0 16.1 0.00 0.00 0.00 36 1002.0
20260503222708 22 281 8.0 14.5 0.00 0.00 0.00 39 1001.9
20260503222403 22 311 11.3 17.7 0.00 0.00 0.00 36 1001.9
20260503220801 22 294 8.0 19.3 0.00 0.00 0.00 38 1001.9
20260503220300 22 297 9.7 19.3 0.00 0.00 0.00 35 1002.0
20260503215805 22 288 8.0 17.7 0.00 0.00 0.00 36 1001.9
20260503215301 22 291 8.0 16.1 0.00 0.00 0.00 37 1002.0
20260503214801 22 289 9.7 16.1 0.00 0.00 0.00 36 1001.9
20260503214549 23 306 11.3 17.7 0.00 0.00 0.00 34 1002.0
20260503214343 22 304 11.3 17.7 0.00 0.00 0.00 35 1002.0
20260503213304 23 311 8.0 17.7 0.00 0.00 0.00 32 1002.2
20260503213036 23 283 8.0 16.1 0.00 0.00 0.00 39 1002.2
20260503212826 23 321 8.0 16.1 0.00 0.00 0.00 34 1002.2
20260503211809 23 196 8.0 14.5 0.00 0.00 0.00 35 1002.2
20260503211302 23 289 9.7 16.1 0.00 0.00 0.00 37 1002.4
20260503210803 23 290 9.7 16.1 0.00 0.00 0.00 36 1002.3
20260503210305 23 306 8.0 14.5 0.00 0.00 0.00 35 1002.3
20260503205936 23 284 9.7 17.7 0.00 0.00 0.00 36 1002.3
20260503205924 23 294 9.7 17.7 0.00 0.00 0.00 37 1002.3
20260503205853 23 290 9.7 16.1 0.00 0.00 0.00 36 1002.4
20260503205811 23 279 8.0 14.5 0.00 0.00 0.00 42 1002.3
20260503205437 23 292 8.0 14.5 0.00 0.00 0.00 37 1002.3
20260503203719 23 300 6.4 12.9 0.00 0.00 0.00 37 1002.5
20260503203421 23 303 8.0 16.1 0.00 0.00 0.00 37 1002.4
20260503202838 23 301 6.4 12.9 0.00 0.00 0.00 35 1002.4
20260503201801 23 308 9.7 14.5 0.00 0.00 0.00 40 1002.5
20260503201303 23 294 8.0 14.5 0.00 0.00 0.00 36 1002.4
20260503200802 23 266 4.8 14.5 0.00 0.00 0.00 38 1002.5
20260503200304 23 237 6.4 16.1 0.00 0.00 0.00 38 1002.5
20260503195801 23 259 6.4 16.1 0.00 0.00 0.00 41 1002.6
20260503195307 23 223 6.4 16.1 0.00 0.00 0.00 37 1002.7
20260503194820 22 281 8.0 16.1 0.00 0.00 0.00 40 1003.0
20260503194806 23 217 4.8 14.5 0.00 0.00 0.00 39 1002.7
20260503194755 23 288 6.4 17.7 0.00 0.00 0.00 43 1002.8
20260503194421 23 292 4.8 14.5 0.00 0.00 0.00 42 1002.7
20260503193321 22 292 8.0 17.7 0.00 0.00 0.00 40 1002.9
20260503192248 22 298 6.4 16.1 0.00 0.00 0.00 42 1003.1
20260503191948 22 235 8.0 16.1 0.00 0.00 0.00 39 1003.1
20260503191814 22 264 8.0 16.1 0.00 0.00 0.00 40 1003.1
20260503190751 22 224 8.0 16.1 0.00 0.00 0.00 39 1003.1
20260503190250 22 225 6.4 16.1 0.00 0.00 0.00 42 1003.3
20260503185750 22 221 6.4 16.1 0.00 0.00 0.00 38 1003.3
20260503185246 22 204 4.8 12.9 0.00 0.00 0.00 39 1003.3
20260503184746 21 264 4.8 12.9 0.00 0.00 0.00 43 1003.3
20260503184247 21 269 6.4 14.5 0.00 0.00 0.00 44 1003.3
20260503183747 21 268 8.0 14.5 0.00 0.00 0.00 38 1003.4
20260503183438 21 218 6.4 19.3 0.00 0.00 0.00 39 1003.5
20260503183309 21 248 8.0 14.5 0.00 0.00 0.00 38 1003.4
20260503182455 21 228 6.4 19.3 0.00 0.00 0.00 39 1003.6
20260503182313 21 207 6.4 19.3 0.00 0.00 0.00 40 1003.6
20260503181243 21 253 6.4 19.3 0.00 0.00 0.00 38 1003.7
20260503180740 21 294 6.4 12.9 0.00 0.00 0.00 41 1003.7
20260503180239 21 292 6.4 16.1 0.00 0.00 0.00 41 1003.7
20260503175742 21 267 6.4 16.1 0.00 0.00 0.00 41 1003.8
20260503175240 21 223 8.0 16.1 0.00 0.00 0.00 41 1003.9
20260503175219 20 296 4.8 12.9 0.00 0.00 0.00 43 1004.0
20260503175155 20 239 4.8 11.3 0.00 0.00 0.00 45 1004.0
20260503174842 20 283 6.4 16.1 0.00 0.00 0.00 40 1003.9
20260503173245 19 242 6.4 19.3 0.00 0.00 0.00 41 1004.1
20260503172744 19 244 6.4 19.3 0.00 0.00 0.00 41 1004.1
20260503172237 19 261 6.4 12.9 0.00 0.00 0.00 44 1004.2
20260503171739 18 239 6.4 12.9 0.00 0.00 0.00 44 1004.2
20260503171238 18 286 9.7 17.7 0.00 0.00 0.00 44 1004.2
20260503170739 18 238 11.3 17.7 0.00 0.00 0.00 42 1004.2
20260503170233 18 211 9.7 17.7 0.00 0.00 0.00 43 1004.2
20260503150729 16 247 16.1 24.1 0.00 0.00 0.00 45 1004.8
20260503150436 16 207 16.1 22.5 0.00 0.00 0.00 45 1004.9
20260503150303 16 214 16.1 24.1 0.00 0.00 0.00 44 1004.8
20260503140221 15 229 14.5 30.6 0.00 0.00 0.00 46 1005.2
20260503131216 14 171 16.1 25.7 0.00 0.00 0.00 49 1005.5
20260503130715 14 201 14.5 24.1 0.00 0.00 0.00 49 1005.5
20260503130455 14 181 14.5 27.4 0.00 0.00 0.00 52 1005.7
20260503130251 14 189 12.9 22.5 0.00 0.00 0.00 51 1005.6
20260503110705 12 181 16.1 32.2 0.00 0.00 0.00 50 1005.4
20260503110206 12 233 16.1 32.2 0.00 0.00 0.00 50 1005.4
20260503100208 12 222 9.7 17.7 0.00 0.00 0.00 50 1006.7
20260503081433 12 227 4.8 11.3 0.00 0.00 0.00 45 1008.0
20260503081238 12 253 4.8 11.3 0.00 0.00 0.00 45 1008.0
20260503080204 12 271 6.4 14.5 0.00 0.00 0.00 45 1008.1
20260503072706 12 225 3.2 11.3 0.00 0.00 0.00 45 1008.4
20260503072212 12 206 3.2 11.3 0.00 0.00 0.00 45 1008.4
20260503071857 12 254 4.8 12.9 0.00 0.00 0.00 45 1008.4
20260503071740 12 223 4.8 12.9 0.00 0.00 0.00 45 1008.4
20260503070708 12 227 6.4 12.9 0.00 0.00 0.00 45 1008.4
20260503070313 11 223 4.8 9.7 0.00 0.00 0.00 46 1008.6
20260503070241 11 211 4.8 8.0 0.00 0.00 0.00 47 1008.6
20260503070229 11 221 6.4 12.9 0.00 0.00 0.00 47 1008.5
20260503070209 12 269 6.4 12.9 0.00 0.00 0.00 46 1008.4
20260503054933 11 302 0.0 0.0 0.00 0.00 0.00 50 1009.2
20260503054921 11 216 0.0 1.6 0.00 0.00 0.00 50 1009.3
20260503054721 11 295 0.0 3.2 0.00 0.00 0.00 49 1009.1
20260503053142 11 216 0.0 3.2 0.00 0.00 0.00 48 1009.2
20260503052755 11 216 1.6 6.4 0.00 0.00 0.00 47 1009.3
20260503052703 11 216 1.6 6.4 0.00 0.00 0.00 47 1009.3
20260503051647 11 258 0.0 4.8 0.00 0.00 0.00 47 1009.4
20260503051141 12 247 1.6 4.8 0.00 0.00 0.00 47 1009.4
20260503050640 12 249 3.2 6.4 0.00 0.00 0.00 46 1009.4
20260503050135 12 257 1.6 6.4 0.00 0.00 0.00 46 1009.4
20260503045639 12 229 1.6 4.8 0.00 0.00 0.00 47 1009.4
20260503045305 12 189 3.2 4.8 0.00 0.00 0.00 46 1009.5
20260503045158 12 189 3.2 4.8 0.00 0.00 0.00 46 1009.4
20260503044133 12 189 3.2 4.8 0.00 0.00 0.00 46 1009.5
20260503043755 12 187 3.2 8.0 0.00 0.00 0.00 45 1009.6
20260503043657 12 189 3.2 6.4 0.00 0.00 0.00 46 1009.5
20260503042630 12 187 3.2 8.0 0.00 0.00 0.00 45 1009.6
20260503042134 12 188 3.2 4.8 0.00 0.00 0.00 45 1009.6
20260503041631 12 188 3.2 4.8 0.00 0.00 0.00 45 1009.7
20260503041132 12 188 3.2 4.8 0.00 0.00 0.00 45 1009.7
20260503040629 12 188 3.2 4.8 0.00 0.00 0.00 46 1009.7
20260503040233 12 188 4.8 6.4 0.00 0.00 0.00 45 1009.8
20260503040148 12 188 3.2 6.4 0.00 0.00 0.00 45 1009.8
20260503035129 12 188 3.2 6.4 0.00 0.00 0.00 45 1009.9
20260503034812 12 188 3.2 4.8 0.00 0.00 0.00 46 1010.0
20260503034658 12 188 3.2 4.8 0.00 0.00 0.00 46 1010.0
20260503033926 12 188 3.2 4.8 0.00 0.00 0.00 45 1010.1
20260503033915 12 188 1.6 4.8 0.00 0.00 0.00 45 1010.3
20260503033723 12 188 3.2 4.8 0.00 0.00 0.00 45 1010.1
20260503032134 12 188 1.6 4.8 0.00 0.00 0.00 45 1010.3
20260503031632 12 188 1.6 3.2 0.00 0.00 0.00 45 1010.3
20260503031133 12 188 1.6 4.8 0.00 0.00 0.00 45 1010.4
20260503030816 12 188 0.0 4.8 0.00 0.00 0.00 44 1010.6
20260503030700 12 188 1.6 4.8 0.00 0.00 0.00 45 1010.5
20260503025631 12 188 0.0 0.0 0.00 0.00 0.00 44 1010.7
20260503025133 12 188 0.0 0.0 0.00 0.00 0.00 44 1010.7
20260503024629 13 188 0.0 0.0 0.00 0.00 0.00 44 1010.7
20260503024129 13 188 0.0 1.6 0.00 0.00 0.00 43 1010.6
20260503023630 13 188 1.6 3.2 0.00 0.00 0.00 42 1010.7
20260503023128 13 188 1.6 3.2 0.00 0.00 0.00 41 1010.7
20260503022630 13 188 1.6 3.2 0.00 0.00 0.00 42 1010.7
20260503022129 13 188 1.6 4.8 0.00 0.00 0.00 41 1010.7
20260503021629 13 188 1.6 4.8 0.00 0.00 0.00 40 1010.7
20260503021129 13 188 0.0 3.2 0.00 0.00 0.00 40 1010.7
20260503020734 13 188 1.6 3.2 0.00 0.00 0.00 40 1010.6
20260503020650 13 188 1.6 3.2 0.00 0.00 0.00 40 1010.7
20260503015632 14 188 3.2 3.2 0.00 0.00 0.00 39 1010.7
20260503015130 14 188 3.2 4.8 0.00 0.00 0.00 39 1010.7
20260503014629 14 188 3.2 4.8 0.00 0.00 0.00 39 1010.7
20260503014134 14 260 1.6 4.8 0.00 0.00 0.00 39 1010.6
20260503013943 14 260 0.0 4.8 0.00 0.00 0.00 38 1010.7
20260503013729 14 260 1.6 3.2 0.00 0.00 0.00 39 1010.6
20260503013154 14 260 1.6 4.8 0.00 0.00 0.00 39 1010.6
20260503012129 14 260 0.0 0.0 0.00 0.00 0.00 37 1010.8
20260503011628 14 260 0.0 0.0 0.00 0.00 0.00 37 1010.8
20260503011252 14 260 3.2 4.8 0.00 0.00 0.00 37 1010.8
20260503011153 14 260 1.6 3.2 0.00 0.00 0.00 39 1010.8
20260503010133 14 260 1.6 4.8 0.00 0.00 0.00 37 1010.9
20260503005629 14 261 0.0 4.8 0.00 0.00 0.00 38 1010.8
20260503005129 15 261 0.0 1.6 0.00 0.00 0.00 39 1010.8
20260503004751 15 261 0.0 1.6 0.00 0.00 0.00 39 1010.9
20260503004653 15 261 0.0 1.6 0.00 0.00 0.00 40 1010.8
20260503003628 15 261 1.6 3.2 0.00 0.00 0.00 39 1010.9
20260503003132 15 261 1.6 3.2 0.00 0.00 0.00 37 1010.9
20260503002630 15 261 1.6 4.8 0.00 0.00 0.00 37 1011.0
20260503002129 15 261 1.6 4.8 0.00 0.00 0.00 38 1011.0
20260503001630 15 261 1.6 4.8 0.00 0.00 0.00 38 1011.0
20260503001129 15 261 1.6 4.8 0.00 0.00 0.00 38 1011.1
20260503001023 15 246 1.6 4.8 0.00 0.00 0.00 37 1011.1
20260503000952 15 265 3.2 4.8 0.00 0.00 0.00 38 1011.1
20260503000727 15 263 1.6 4.8 0.00 0.00 0.00 38 1011.0
20260502235159 16 266 3.2 11.3 0.00 0.00 0.00 35 1011.3
20260502235131 15 256 3.2 8.0 0.00 0.00 0.00 37 1011.3
20260502235126 16 248 4.8 12.9 0.00 0.00 0.00 37 1011.4
20260502235054 16 246 4.8 12.9 0.00 0.00 0.00 37 1011.4
20260502234745 16 292 4.8 9.7 0.00 0.00 0.00 37 1011.4
20260502232632 16 288 6.4 12.9 0.00 0.00 0.00 35 1011.4
20260502232129 16 293 6.4 11.3 0.00 0.00 0.00 38 1011.5
20260502231629 16 289 4.8 11.3 0.00 0.00 0.00 37 1011.5
20260502231242 16 248 6.4 12.9 0.00 0.00 0.00 36 1011.6
20260502231152 16 296 4.8 8.0 0.00 0.00 0.00 37 1011.5
20260502230300 16 288 4.8 11.3 0.00 0.00 0.00 35 1011.7
20260502230156 16 299 6.4 12.9 0.00 0.00 0.00 35 1011.6
20260502225129 16 324 6.4 11.3 0.00 0.00 0.00 36 1011.7
20260502224633 16 294 6.4 14.5 0.00 0.00 0.00 34 1011.7
20260502224128 16 292 8.0 16.1 0.00 0.00 0.00 35 1011.8